NSZ7RP EFRO-EFHK

Flight info

Callsign NSZ7RP
Flight time 1h 2m
Altitude 35000
Route RENVI Y86 LUSEP
Aircraft B38M/M-SDE1FGHILORVWXY/HB1

Departure

Time 2026-04-26 09:56
Airport Rovaniemi Airport (EFRO)

Arrival

Time 2026-04-26 10:58
Airport Helsinki Vantaa Airport (EFHK)
Time Latitude Longitude Altitude Speed Heading
2026-04-26 09:29 66.55867 25.82719 644 ft 0 kts 155°
2026-04-26 09:48 66.55871 25.82714 644 ft 2 kts 155°
2026-04-26 09:48 66.55888 25.82695 646 ft 3 kts 158°
2026-04-26 09:48 66.55907 25.82678 645 ft 3 kts 163°
2026-04-26 09:49 66.55927 25.82666 644 ft 3 kts 172°
2026-04-26 09:49 66.55946 25.82665 645 ft 3 kts 195°
2026-04-26 09:49 66.55959 25.82682 646 ft 2 kts 245°
2026-04-26 09:49 66.55961 25.82693 644 ft 1 kts 258°
2026-04-26 09:53 66.55960 25.82688 643 ft 2 kts 258°
2026-04-26 09:53 66.55955 25.82625 642 ft 6 kts 258°
2026-04-26 09:53 66.55921 25.82511 641 ft 12 kts 219°
2026-04-26 09:53 66.55831 25.82340 638 ft 21 kts 217°
2026-04-26 09:54 66.55699 25.82085 636 ft 27 kts 217°
2026-04-26 09:54 66.55551 25.81807 645 ft 26 kts 216°
2026-04-26 09:54 66.55416 25.81549 647 ft 23 kts 218°
2026-04-26 09:54 66.55340 25.81326 649 ft 16 kts 259°
2026-04-26 09:55 66.55409 25.81090 644 ft 13 kts 329°
2026-04-26 09:55 66.55473 25.81115 643 ft 6 kts 37°
2026-04-26 09:55 66.55548 25.81257 643 ft 38 kts 37°
2026-04-26 09:55 66.55989 25.82096 640 ft 117 kts 38°
2026-04-26 09:56 66.56790 25.83645 760 ft 167 kts 36°
2026-04-26 09:56 66.57752 25.85562 1517 ft 182 kts 34°
2026-04-26 09:56 66.58832 25.87614 2320 ft 206 kts 32°
2026-04-26 09:56 66.59940 25.89692 3621 ft 195 kts 34°
2026-04-26 09:57 66.60943 25.92059 4622 ft 211 kts 56°
2026-04-26 09:57 66.61290 25.95811 5354 ft 238 kts 93°
2026-04-26 09:57 66.60602 25.99648 6400 ft 245 kts 128°
2026-04-26 09:57 66.59476 26.02929 7342 ft 251 kts 124°
2026-04-26 09:58 66.58295 26.06305 8150 ft 268 kts 140°
2026-04-26 09:58 66.56527 26.08160 8908 ft 285 kts 173°
2026-04-26 09:58 66.54558 26.07540 9899 ft 292 kts 200°
2026-04-26 09:58 66.52672 26.05319 10497 ft 308 kts 205°
2026-04-26 09:59 66.50674 26.02924 11001 ft 327 kts 205°
2026-04-26 09:59 66.48573 26.00433 11615 ft 340 kts 204°
2026-04-26 09:59 66.46403 25.97879 12324 ft 349 kts 204°
2026-04-26 09:59 66.44198 25.95295 13246 ft 351 kts 204°
2026-04-26 10:00 66.41969 25.92688 14074 ft 355 kts 204°
2026-04-26 10:00 66.39714 25.90057 14819 ft 360 kts 204°
2026-04-26 10:00 66.37432 25.87401 15605 ft 364 kts 204°
2026-04-26 10:00 66.35123 25.84716 16360 ft 369 kts 204°
2026-04-26 10:01 66.32776 25.81995 17106 ft 374 kts 204°
2026-04-26 10:01 66.30437 25.79287 17861 ft 378 kts 204°
2026-04-26 10:01 66.28034 25.76513 18516 ft 382 kts 204°
2026-04-26 10:01 66.25604 25.73712 19140 ft 386 kts 204°
2026-04-26 10:02 66.23153 25.70895 19754 ft 390 kts 205°
2026-04-26 10:02 66.20676 25.68052 20362 ft 394 kts 205°
2026-04-26 10:02 66.18177 25.65193 20968 ft 398 kts 205°
2026-04-26 10:02 66.15655 25.62311 21568 ft 401 kts 205°
2026-04-26 10:03 66.13107 25.59406 22155 ft 405 kts 205°
2026-04-26 10:03 66.10540 25.56485 22730 ft 409 kts 205°
2026-04-26 10:03 66.07915 25.53959 23294 ft 412 kts 193°
2026-04-26 10:03 66.05054 25.53215 23769 ft 415 kts 182°
2026-04-26 10:04 66.02149 25.52937 24180 ft 420 kts 182°
2026-04-26 10:04 65.99217 25.52695 24605 ft 423 kts 181°
2026-04-26 10:04 65.96258 25.52489 25041 ft 427 kts 181°
2026-04-26 10:04 65.93277 25.52299 25475 ft 430 kts 181°
2026-04-26 10:05 65.90269 25.52116 25894 ft 433 kts 181°
2026-04-26 10:05 65.87232 25.51931 26302 ft 437 kts 181°
2026-04-26 10:05 65.84218 25.51750 26708 ft 440 kts 182°
2026-04-26 10:05 65.81147 25.51566 27105 ft 444 kts 182°
2026-04-26 10:06 65.78051 25.51381 27512 ft 447 kts 182°
2026-04-26 10:06 65.74934 25.51195 27902 ft 450 kts 182°
2026-04-26 10:06 65.71795 25.51009 28277 ft 453 kts 182°
2026-04-26 10:06 65.68626 25.50821 28651 ft 456 kts 182°
2026-04-26 10:07 65.65445 25.50633 29033 ft 459 kts 182°
2026-04-26 10:07 65.62243 25.50444 29393 ft 462 kts 182°
2026-04-26 10:07 65.59016 25.50254 29737 ft 465 kts 182°
2026-04-26 10:07 65.55770 25.50063 30042 ft 468 kts 182°
2026-04-26 10:08 65.52502 25.49872 30322 ft 470 kts 182°
2026-04-26 10:08 65.49259 25.49682 30590 ft 473 kts 182°
2026-04-26 10:08 65.45957 25.49490 30858 ft 476 kts 182°
2026-04-26 10:08 65.42639 25.49297 31139 ft 478 kts 182°
2026-04-26 10:09 65.39302 25.49104 31404 ft 481 kts 182°
2026-04-26 10:09 65.35949 25.48909 31660 ft 483 kts 182°
2026-04-26 10:09 65.32580 25.48714 31913 ft 486 kts 182°
2026-04-26 10:09 65.29194 25.48518 32206 ft 487 kts 182°
2026-04-26 10:10 65.25804 25.48320 32564 ft 487 kts 182°
2026-04-26 10:10 65.22416 25.48124 32903 ft 487 kts 182°
2026-04-26 10:10 65.19021 25.47927 33235 ft 488 kts 182°
2026-04-26 10:10 65.15628 25.47731 33573 ft 488 kts 182°
2026-04-26 10:11 65.12227 25.47536 33889 ft 489 kts 182°
2026-04-26 10:11 65.08829 25.47345 34168 ft 489 kts 182°
2026-04-26 10:11 65.05423 25.47152 34450 ft 489 kts 182°
2026-04-26 10:11 65.02067 25.46964 34705 ft 489 kts 182°
2026-04-26 10:12 64.98659 25.46770 34809 ft 490 kts 182°
2026-04-26 10:12 64.95256 25.46575 34804 ft 488 kts 182°
2026-04-26 10:12 64.88471 25.46188 34799 ft 488 kts 182°
2026-04-26 10:13 64.81688 25.45803 34801 ft 488 kts 182°
2026-04-26 10:13 64.74899 25.45420 34801 ft 488 kts 182°
2026-04-26 10:14 64.68111 25.45038 34797 ft 488 kts 182°
2026-04-26 10:14 64.61323 25.44659 34796 ft 488 kts 182°
2026-04-26 10:15 64.54535 25.44281 34789 ft 488 kts 182°
2026-04-26 10:15 64.47742 25.43905 34791 ft 488 kts 182°
2026-04-26 10:16 64.40957 25.43533 34787 ft 488 kts 182°
2026-04-26 10:16 64.35318 25.43224 34787 ft 488 kts 182°
2026-04-26 10:17 64.28532 25.42855 34783 ft 487 kts 182°
2026-04-26 10:17 64.21751 25.42487 34783 ft 487 kts 182°
2026-04-26 10:18 64.14966 25.42122 34779 ft 487 kts 182°
2026-04-26 10:18 64.08182 25.41759 34782 ft 487 kts 182°
2026-04-26 10:19 64.01407 25.41397 34778 ft 487 kts 182°
2026-04-26 10:19 63.94678 25.41040 34778 ft 487 kts 182°
2026-04-26 10:20 63.87910 25.40682 34777 ft 486 kts 182°
2026-04-26 10:20 63.81142 25.40334 34775 ft 486 kts 182°
2026-04-26 10:21 63.74377 25.39991 34772 ft 486 kts 182°
2026-04-26 10:21 63.67609 25.39633 34774 ft 486 kts 183°
2026-04-26 10:22 63.60834 25.39275 34771 ft 486 kts 183°
2026-04-26 10:22 63.54067 25.38925 34769 ft 487 kts 183°
2026-04-26 10:23 63.47302 25.38576 34771 ft 487 kts 183°
2026-04-26 10:23 63.40529 25.38229 34770 ft 487 kts 183°
2026-04-26 10:24 63.33752 25.37881 34767 ft 486 kts 183°
2026-04-26 10:24 63.26983 25.37535 34768 ft 487 kts 183°
2026-04-26 10:25 63.20256 25.37192 34770 ft 486 kts 183°
2026-04-26 10:25 63.13495 25.36849 34765 ft 486 kts 183°
2026-04-26 10:26 63.06731 25.36507 34764 ft 486 kts 183°
2026-04-26 10:26 62.99977 25.36168 34764 ft 485 kts 183°
2026-04-26 10:27 62.93229 25.35830 34766 ft 485 kts 183°
2026-04-26 10:27 62.86484 25.35494 34757 ft 484 kts 183°
2026-04-26 10:28 62.79747 25.35160 34758 ft 484 kts 183°
2026-04-26 10:28 62.73013 25.34824 34754 ft 484 kts 183°
2026-04-26 10:29 62.66283 25.34489 34748 ft 483 kts 183°
2026-04-26 10:29 62.59559 25.34155 34736 ft 483 kts 183°
2026-04-26 10:30 62.52834 25.33825 34731 ft 483 kts 183°
2026-04-26 10:30 62.46109 25.33500 34723 ft 483 kts 184°
2026-04-26 10:31 62.39397 25.33176 34721 ft 482 kts 183°
2026-04-26 10:31 62.32692 25.32854 34725 ft 482 kts 183°
2026-04-26 10:32 62.26025 25.32535 34725 ft 482 kts 183°
2026-04-26 10:32 62.19327 25.32217 34730 ft 482 kts 184°
2026-04-26 10:33 62.12626 25.31899 34734 ft 481 kts 184°
2026-04-26 10:33 62.05930 25.31580 34738 ft 481 kts 184°
2026-04-26 10:34 61.99243 25.31260 34740 ft 481 kts 184°
2026-04-26 10:34 61.92551 25.30945 34736 ft 481 kts 184°
2026-04-26 10:35 61.85864 25.30633 34737 ft 480 kts 184°
2026-04-26 10:35 61.79180 25.30321 34736 ft 480 kts 184°
2026-04-26 10:36 61.72540 25.30013 34732 ft 480 kts 184°
2026-04-26 10:36 61.65851 25.29705 34726 ft 480 kts 184°
2026-04-26 10:37 61.59168 25.29392 34723 ft 480 kts 184°
2026-04-26 10:37 61.55845 25.29237 34248 ft 477 kts 184°
2026-04-26 10:37 61.52486 25.29078 33029 ft 488 kts 184°
2026-04-26 10:38 61.49109 25.28922 32457 ft 481 kts 184°
2026-04-26 10:38 61.45752 25.28765 31414 ft 485 kts 184°
2026-04-26 10:38 61.42403 25.28610 30860 ft 478 kts 184°
2026-04-26 10:38 61.39090 25.28456 30168 ft 475 kts 184°
2026-04-26 10:39 61.35800 25.28304 29461 ft 471 kts 184°
2026-04-26 10:39 61.32537 25.28154 28791 ft 465 kts 184°
2026-04-26 10:39 61.29328 25.28006 28182 ft 458 kts 184°
2026-04-26 10:39 61.26168 25.27863 27600 ft 451 kts 184°
2026-04-26 10:40 61.23054 25.27721 27051 ft 444 kts 184°
2026-04-26 10:40 61.20027 25.27585 26526 ft 437 kts 184°
2026-04-26 10:40 61.17011 25.27448 25998 ft 431 kts 184°
2026-04-26 10:40 61.14033 25.27314 25461 ft 425 kts 184°
2026-04-26 10:41 61.11091 25.27182 24967 ft 419 kts 184°
2026-04-26 10:41 61.08197 25.27052 24457 ft 414 kts 184°
2026-04-26 10:41 61.05334 25.26924 23967 ft 408 kts 184°
2026-04-26 10:41 61.02513 25.26797 23478 ft 403 kts 184°
2026-04-26 10:42 60.99725 25.26673 22937 ft 398 kts 184°
2026-04-26 10:42 60.96969 25.26550 22384 ft 393 kts 184°
2026-04-26 10:42 60.94250 25.26594 21919 ft 388 kts 181°
2026-04-26 10:42 60.91581 25.26775 21589 ft 379 kts 181°
2026-04-26 10:43 60.88975 25.26929 21298 ft 370 kts 182°
2026-04-26 10:43 60.86437 25.27070 21045 ft 361 kts 182°
2026-04-26 10:43 60.83954 25.27204 20732 ft 354 kts 182°
2026-04-26 10:43 60.81516 25.26952 20248 ft 348 kts 193°
2026-04-26 10:44 60.79112 25.26213 19684 ft 350 kts 191°
2026-04-26 10:44 60.76684 25.25562 19046 ft 354 kts 191°
2026-04-26 10:44 60.74230 25.24934 18425 ft 357 kts 190°
2026-04-26 10:44 60.71760 25.24324 17806 ft 359 kts 190°
2026-04-26 10:45 60.69273 25.23721 17120 ft 361 kts 190°
2026-04-26 10:45 60.66771 25.23119 16436 ft 363 kts 190°
2026-04-26 10:45 60.64289 25.22525 15790 ft 364 kts 190°
2026-04-26 10:45 60.61767 25.21923 15140 ft 366 kts 190°
2026-04-26 10:46 60.59235 25.21319 14504 ft 367 kts 190°
2026-04-26 10:46 60.56700 25.20715 13882 ft 368 kts 190°
2026-04-26 10:46 60.54149 25.20110 13241 ft 369 kts 190°
2026-04-26 10:46 60.51608 25.19507 12545 ft 365 kts 189°
2026-04-26 10:47 60.49127 25.18921 11893 ft 353 kts 190°
2026-04-26 10:47 60.46720 25.18351 11237 ft 343 kts 190°
2026-04-26 10:47 60.44378 25.17798 10595 ft 335 kts 190°
2026-04-26 10:47 60.42082 25.17257 9950 ft 329 kts 189°
2026-04-26 10:48 60.39821 25.16724 9275 ft 324 kts 189°
2026-04-26 10:48 60.37597 25.16201 8588 ft 320 kts 189°
2026-04-26 10:48 60.35398 25.15683 7907 ft 316 kts 190°
2026-04-26 10:48 60.33213 25.15525 7213 ft 317 kts 173°
2026-04-26 10:49 60.31151 25.17063 6559 ft 317 kts 153°
2026-04-26 10:49 60.29206 25.19106 5895 ft 314 kts 155°
2026-04-26 10:49 60.27283 25.21072 5203 ft 312 kts 155°
2026-04-26 10:49 60.25349 25.23040 4521 ft 311 kts 154°
2026-04-26 10:50 60.23431 25.24983 3916 ft 306 kts 155°
2026-04-26 10:50 60.22177 25.26252 3531 ft 302 kts 155°
2026-04-26 10:50 60.19724 25.28733 3139 ft 283 kts 155°
2026-04-26 10:50 60.18039 25.30436 3121 ft 260 kts 155°
2026-04-26 10:51 60.16482 25.32034 3104 ft 244 kts 156°
2026-04-26 10:51 60.13441 25.32451 3043 ft 217 kts 214°
2026-04-26 10:51 60.12420 25.30378 3012 ft 206 kts 248°
2026-04-26 10:52 60.12138 25.27635 3021 ft 201 kts 272°
2026-04-26 10:52 60.12180 25.24824 3016 ft 202 kts 275°
2026-04-26 10:52 60.12247 25.22036 3012 ft 202 kts 275°
2026-04-26 10:52 60.12423 25.19294 2990 ft 192 kts 292°
2026-04-26 10:53 60.13189 25.17222 3000 ft 180 kts 319°
2026-04-26 10:53 60.14199 25.15785 3034 ft 181 kts 327°
2026-04-26 10:53 60.15294 25.14540 3031 ft 181 kts 329°
2026-04-26 10:54 60.17508 25.12246 3027 ft 168 kts 330°
2026-04-26 10:54 60.18529 25.11208 3006 ft 163 kts 330°
2026-04-26 10:54 60.19536 25.10187 2948 ft 161 kts 330°
2026-04-26 10:54 60.20512 25.09194 2763 ft 153 kts 330°
2026-04-26 10:55 60.21456 25.08240 2592 ft 151 kts 329°
2026-04-26 10:55 60.22397 25.07287 2402 ft 151 kts 330°
2026-04-26 10:55 60.23323 25.06348 2228 ft 151 kts 329°
2026-04-26 10:55 60.23955 25.05704 2086 ft 150 kts 329°
2026-04-26 10:56 60.25152 25.04490 1796 ft 142 kts 329°
2026-04-26 10:56 60.26014 25.03613 1588 ft 136 kts 329°
2026-04-26 10:56 60.26853 25.02759 1372 ft 134 kts 328°
2026-04-26 10:56 60.27666 25.01904 1057 ft 129 kts 330°
2026-04-26 10:57 60.28455 25.01103 774 ft 125 kts 331°
2026-04-26 10:57 60.29220 25.00338 587 ft 121 kts 331°
2026-04-26 10:57 60.29961 24.99587 385 ft 118 kts 333°
2026-04-26 10:57 60.30689 24.98845 218 ft 116 kts 332°
2026-04-26 10:58 60.31364 24.98154 160 ft 95 kts 333°
2026-04-26 10:58 60.31870 24.97642 155 ft 71 kts 334°
2026-04-26 10:58 60.32229 24.97274 160 ft 42 kts 332°
2026-04-26 10:58 60.32386 24.97051 165 ft 16 kts 286°
2026-04-26 10:59 60.32350 24.96891 167 ft 9 kts 226°
2026-04-26 10:59 60.32330 24.96860 167 ft 1 kts 216°
2026-04-26 10:59 60.32326 24.96853 167 ft 2 kts 224°
2026-04-26 10:59 60.32304 24.96799 168 ft 9 kts 232°
2026-04-26 11:00 60.32239 24.96643 170 ft 18 kts 228°
2026-04-26 11:00 60.32148 24.96440 170 ft 21 kts 227°
2026-04-26 11:00 60.32042 24.96207 170 ft 23 kts 227°
2026-04-26 11:00 60.31940 24.96033 171 ft 15 kts 181°
2026-04-26 11:01 60.31857 24.96203 166 ft 20 kts 106°
2026-04-26 11:01 60.31868 24.96341 166 ft 8 kts 68°
2026-04-26 11:01 60.31853 24.96441 166 ft 2 kts 138°
2026-04-26 11:01 60.31842 24.96460 166 ft 0 kts 138°